Weather History for HESH - January, 2013

Change the Weather History Date:

Tuesday, January 15, 2013

  Actual Average Record
Temperature  
Mean Temperature 65 °F -  
Max Temperature 77 °F - - ()
Min Temperature 53 °F - - ()
Growing Degree Days 15 (Base 50)    
Moisture  
Dew Point 34 °F    
Average Humidity 33    
Maximum Humidity 47    
Minimum Humidity 21    
Precipitation  
Precipitation 0.00 in - - ()
Sea Level Pressure  
Sea Level Pressure 30.12 in    
Wind  
Wind Speed 8 mph ()    
Max Wind Speed 14 mph    
Max Gust Speed -    
Visibility 3.7 miles    
Events      
T = Trace of Precipitation, MM = Missing Value Source: Averaged Metar Reports

Daily Weather History Graph

Daily Weather History Graph

Search for Another Location

Airport or City:

Trip Planner

Search our weather history database for the weather conditions in past years. The results will help you decide how hot, cold, wet, or windy it might be!

Date:

Astronomy

Jan. 15, 2013 Rise Set
Actual Time 6:34 AM EET 5:08 PM EET
Civil Twilight 6:09 AM EET 5:34 PM EET
Nautical Twilight 5:40 AM EET 6:03 PM EET
Astronomical Twilight 5:12 AM EET 6:31 PM EET
Moon 8:53 AM EET (1/15) 9:09 PM EET (1/15)
Length of Visible Light 11h 24m
Length of Day
10h 34m
Waxing Crescent, 16% of the Moon is Illuminated
Jan 15
Waxing Crescent
Jan 19
First Quarter
Jan 27
Full
Feb 3
Last Quarter
Feb 10
New

Hourly Weather History & Observations

Time (EET) Temp. Dew Point Humidity Pressure Visibility Wind Dir Wind Speed Gust Speed Precip Events Conditions
12:00 AM 60.8 °F 33.8 °F 36% 30.12 in - North 8.1 mph - N/A   Clear
1:00 AM 60.8 °F 32.0 °F 34% 30.12 in - North 11.5 mph - N/A   Clear
2:00 AM 59.0 °F 30.2 °F 34% 30.12 in - North 9.2 mph - N/A   Clear
3:00 AM 59.0 °F 32.0 °F 36% 30.12 in - North 9.2 mph - N/A   Clear
4:00 AM 59.0 °F 32.0 °F 36% 30.12 in - North 10.4 mph - N/A   Clear
5:00 AM 59.0 °F 30.2 °F 34% 30.12 in - North 9.2 mph - N/A   Clear
6:00 AM 57.2 °F 28.4 °F 33% 30.15 in - North 6.9 mph - N/A   Clear
7:00 AM 57.2 °F 26.6 °F 31% 30.15 in - North 9.2 mph - N/A   Clear
8:00 AM 60.8 °F 30.2 °F 31% 30.15 in - North 8.1 mph - N/A   Clear
9:00 AM 68.0 °F 32.0 °F 26% 30.18 in - North 11.5 mph - N/A   Clear
10:00 AM 53.6 °F 30.2 °F 41% 30.18 in - North 13.8 mph - N/A   Clear
11:00 AM 73.4 °F 32.0 °F 22% 30.15 in - NNE 10.4 mph - N/A   Clear
12:00 PM 75.2 °F 35.6 °F 24% 30.12 in - NNE 11.5 mph - N/A   Clear
1:00 PM 77.0 °F 33.8 °F 21% 30.09 in 3.7 mi NNE 10.4 mph - N/A   Unknown
2:00 PM 77.0 °F 35.6 °F 22% 30.09 in 3.7 mi NNE 9.2 mph - N/A   Unknown
3:00 PM 77.0 °F 37.4 °F 24% 30.09 in 3.7 mi NNE 9.2 mph - N/A   Unknown
4:00 PM 71.6 °F 37.4 °F 29% 30.09 in 3.7 mi NNE 9.2 mph - N/A   Unknown
5:00 PM 69.8 °F 35.6 °F 28% 30.09 in 3.7 mi North 9.2 mph - N/A   Unknown
6:00 PM 64.4 °F 39.2 °F 40% 30.09 in - North 9.2 mph - N/A   Clear
7:00 PM 64.4 °F 39.2 °F 40% 30.09 in 3.7 mi NNE 10.4 mph - N/A   Unknown
8:00 PM 62.6 °F 39.2 °F 42% 30.12 in 3.7 mi North 8.1 mph - N/A   Unknown
9:00 PM 62.6 °F 37.4 °F 39% 30.12 in 3.7 mi North 8.1 mph - N/A   Unknown
10:00 PM 53.6 °F 33.8 °F 47% 30.09 in 3.7 mi North 8.1 mph - N/A   Unknown
11:00 PM 62.6 °F 30.2 °F 30% 30.09 in 3.7 mi North 10.4 mph - N/A   Unknown